Thunderstorms From: 21-05-2018 15:00 Until: 22-05-2018 15:00 warning for: Thunderstorms Level: Yellow info button

Although rather usual in this region, locally or potentially dangerous phenomena are expected. (such as local winds, summer thunderstorms, rising streams or high waves) Be aware and pay attention to the latest weather updates, especially if you carry out activities exposed to weather or close to a stream or shoreline. 


Meteo18 Weather Cam more information Meteo18 Weather Cam


warning for Thunderstorms more information blitzortung!


Rain radar more information rain snow radar


Visit our other weather sites:

Template documentation
and downloads

And another site



Weather Underground History page Text

Daily Summary for February 2, 2018 Units:  Both    English   Metric
« Previous Day
Next Day »
Daily Weekly Monthly Yearly Custom
  High: Low: Average:
Temperature: TemperatureC °F /  -17.8 °C -2.7 °F /  -19.3 °C 1.3 °F /  -17.1 °C
Dew Point: DewpointC °F /  -17.8 °C -3.1 °F /  -19.5 °C 0.2 °F /  -17.7 °C
Humidity: Humidity % 72 % 92 %
Wind Speed: WindSpeedKMH mph /  0 km/h - 2.8 mph /  4.5 km/h
Wind Gust: WindSpeedGustKMH mph /  0 km/h - -
Wind:- - WSW
Pressure: PressurehPa in /  0 hPa 1009.4 in /  34178.3 hPa -
Precipitation: 0.5 in /  12.7 mm    
Historical Graphs
 
 
Tabular Data for February 2, 2018
Time Temperature Dew Point Pressure Wind Wind Speed Wind Gust Humidity Rainfall Rate (Hourly)
TemperatureC °F /  -17.8 °C DewpointC °F /  -17.8 °C PressurehPa in /  0 hPa Calm     Humidity % HourlyPrecipMM in /  0 mm
00:01 0.6 °F /  -17.4 °C -0.1 °F /  -17.8 °C 1009.4 in /  34178.3 hPa Calm   1.6 mph /  2.6 km/h 95 % 0.0 in /  0 mm
00:07 0.6 °F /  -17.4 °C 0.0 °F /  -17.8 °C 1009.4 in /  34178.3 hPa Calm   1.6 mph /  2.6 km/h 96 % 0.0 in /  0 mm
00:13 0.7 °F /  -17.4 °C 0.1 °F /  -17.7 °C 1009.4 in /  34178.3 hPa Calm   1.6 mph /  2.6 km/h 96 % 0.0 in /  0 mm
00:19 0.6 °F /  -17.4 °C 0.0 °F /  -17.8 °C 1009.7 in /  34188.4 hPa WNW 1.4 mph /  2.3 km/h 1.6 mph /  2.6 km/h 96 % 0.0 in /  0 mm
00:25 0.6 °F /  -17.4 °C 0.0 °F /  -17.8 °C 1009.7 in /  34188.4 hPa Calm   1.6 mph /  2.6 km/h 96 % 0.0 in /  0 mm
00:31 0.8 °F /  -17.3 °C 0.2 °F /  -17.7 °C 1009.7 in /  34188.4 hPa Calm   1.6 mph /  2.6 km/h 96 % 0.0 in /  0 mm
00:37 0.9 °F /  -17.3 °C 0.3 °F /  -17.6 °C 1009.7 in /  34188.4 hPa Calm     96 % 0.0 in /  0 mm
00:43 0.7 °F /  -17.4 °C 0.0 °F /  -17.8 °C 1009.7 in /  34188.4 hPa Calm   1.6 mph /  2.6 km/h 95 % 0.0 in /  0 mm
00:49 0.6 °F /  -17.4 °C -0.1 °F /  -17.8 °C 1009.7 in /  34188.4 hPa SSE 1.4 mph /  2.3 km/h 1.6 mph /  2.6 km/h 95 % 0.0 in /  0 mm
00:55 0.5 °F /  -17.5 °C -0.2 °F /  -17.9 °C 1009.7 in /  34188.4 hPa Calm   1.6 mph /  2.6 km/h 95 % 0.0 in /  0 mm
01:02 0.4 °F /  -17.6 °C -0.2 °F /  -17.9 °C 1009.7 in /  34188.4 hPa Calm     96 % 0.0 in /  0 mm
01:08 0.3 °F /  -17.6 °C -0.4 °F /  -18 °C 1009.7 in /  34188.4 hPa Calm   1.6 mph /  2.6 km/h 95 % 0.0 in /  0 mm
01:14 0.2 °F /  -17.7 °C -0.5 °F /  -18.1 °C 1009.7 in /  34188.4 hPa ESE 1.4 mph /  2.3 km/h 3.2 mph /  5.1 km/h 95 % 0.0 in /  0 mm
01:20 0.2 °F /  -17.7 °C -0.4 °F /  -18 °C 1009.7 in /  34188.4 hPa SE 4.7 mph /  7.6 km/h 6.4 mph /  10.3 km/h 96 % 0.0 in /  0 mm
01:26 0.1 °F /  -17.7 °C -0.6 °F /  -18.1 °C 1009.7 in /  34188.4 hPa Calm   1.6 mph /  2.6 km/h 95 % 0.0 in /  0 mm
01:32 0.1 °F /  -17.7 °C -0.5 °F /  -18.1 °C 1009.7 in /  34188.4 hPa SE 3.2 mph /  5.1 km/h 3.2 mph /  5.1 km/h 96 % 0.0 in /  0 mm
01:38 0.0 °F /  -17.8 °C -0.6 °F /  -18.1 °C 1009.7 in /  34188.4 hPa SE 1.4 mph /  2.3 km/h 1.6 mph /  2.6 km/h 96 % 0.0 in /  0 mm
01:44 -0.2 °F /  -17.9 °C -0.9 °F /  -18.3 °C 1009.7 in /  34188.4 hPa Calm     95 % 0.0 in /  0 mm
01:50 -0.2 °F /  -17.9 °C -0.8 °F /  -18.2 °C 1009.7 in /  34188.4 hPa Calm     96 % 0.0 in /  0 mm
01:56 -0.3 °F /  -17.9 °C -0.9 °F /  -18.3 °C 1009.7 in /  34188.4 hPa Calm     96 % 0.0 in /  0 mm
02:02 -0.3 °F /  -17.9 °C -0.9 °F /  -18.3 °C 1009.7 in /  34188.4 hPa ESE 1.4 mph /  2.3 km/h 1.6 mph /  2.6 km/h 96 % 0.0 in /  0 mm
02:08 -0.3 °F /  -17.9 °C -0.9 °F /  -18.3 °C 1009.7 in /  34188.4 hPa Calm   3.2 mph /  5.1 km/h 96 % 0.0 in /  0 mm
02:14 -0.4 °F /  -18 °C -1.0 °F /  -18.3 °C 1009.7 in /  34188.4 hPa Calm   1.6 mph /  2.6 km/h 96 % 0.0 in /  0 mm
02:20 -0.4 °F /  -18 °C -1.0 °F /  -18.3 °C 1009.7 in /  34188.4 hPa Calm     96 % 0.0 in /  0 mm
02:26 -0.4 °F /  -18 °C -1.0 °F /  -18.3 °C 1009.7 in /  34188.4 hPa Calm   1.6 mph /  2.6 km/h 96 % 0.0 in /  0 mm
02:32 -0.4 °F /  -18 °C -1.0 °F /  -18.3 °C 1010.0 in /  34198.6 hPa Calm   1.6 mph /  2.6 km/h 96 % 0.0 in /  0 mm
02:38 -0.4 °F /  -18 °C -0.8 °F /  -18.2 °C 1010.0 in /  34198.6 hPa Calm     97 % 0.0 in /  0 mm
02:44 -0.4 °F /  -18 °C -0.8 °F /  -18.2 °C 1010.0 in /  34198.6 hPa Calm     97 % 0.0 in /  0 mm
02:50 -0.6 °F /  -18.1 °C -1.2 °F /  -18.4 °C 1010.0 in /  34198.6 hPa Calm     96 % 0.0 in /  0 mm
02:56 -0.8 °F /  -18.2 °C -1.4 °F /  -18.6 °C 1010.0 in /  34198.6 hPa Calm   1.6 mph /  2.6 km/h 96 % 0.0 in /  0 mm
03:02 -0.8 °F /  -18.2 °C -1.4 °F /  -18.6 °C 1010.0 in /  34198.6 hPa Calm   1.6 mph /  2.6 km/h 96 % 0.0 in /  0 mm
03:08 -0.8 °F /  -18.2 °C -1.4 °F /  -18.6 °C 1010.0 in /  34198.6 hPa Calm   1.6 mph /  2.6 km/h 96 % 0.0 in /  0 mm
03:14 -0.8 °F /  -18.2 °C -1.2 °F /  -18.4 °C 1010.0 in /  34198.6 hPa Calm     97 % 0.0 in /  0 mm
03:20 -0.8 °F /  -18.2 °C -1.2 °F /  -18.4 °C 1010.0 in /  34198.6 hPa Calm     97 % 0.0 in /  0 mm
03:26 -1.0 °F /  -18.3 °C -1.6 °F /  -18.7 °C 1010.0 in /  34198.6 hPa Calm     96 % 0.0 in /  0 mm
03:32 -1.1 °F /  -18.4 °C -1.7 °F /  -18.7 °C 1010.0 in /  34198.6 hPa Calm     96 % 0.0 in /  0 mm
03:38 -1.1 °F /  -18.4 °C -1.5 °F /  -18.6 °C 1010.0 in /  34198.6 hPa Calm     97 % 0.0 in /  0 mm
03:44 -0.9 °F /  -18.3 °C -1.3 °F /  -18.5 °C 1010.0 in /  34198.6 hPa Calm     97 % 0.0 in /  0 mm
03:50 -1.0 °F /  -18.3 °C -1.4 °F /  -18.6 °C 1010.0 in /  34198.6 hPa Calm     97 % 0.0 in /  0 mm
03:57 -1.1 °F /  -18.4 °C -1.5 °F /  -18.6 °C 1010.0 in /  34198.6 hPa Calm     97 % 0.0 in /  0 mm
04:03 -1.1 °F /  -18.4 °C -1.5 °F /  -18.6 °C 1010.0 in /  34198.6 hPa Calm     97 % 0.0 in /  0 mm
04:09 -1.1 °F /  -18.4 °C -1.5 °F /  -18.6 °C 1010.0 in /  34198.6 hPa Calm     97 % 0.0 in /  0 mm
04:15 -1.0 °F /  -18.3 °C -1.4 °F /  -18.6 °C 1010.0 in /  34198.6 hPa Calm     97 % 0.0 in /  0 mm
04:21 -0.8 °F /  -18.2 °C -1.2 °F /  -18.4 °C 1010.0 in /  34198.6 hPa Calm     97 % 0.0 in /  0 mm
04:27 -0.8 °F /  -18.2 °C -1.2 °F /  -18.4 °C 1010.0 in /  34198.6 hPa Calm     97 % 0.0 in /  0 mm
04:33 -0.9 °F /  -18.3 °C -1.3 °F /  -18.5 °C 1010.0 in /  34198.6 hPa Calm     97 % 0.0 in /  0 mm
04:39 -0.8 °F /  -18.2 °C -1.2 °F /  -18.4 °C 1010.0 in /  34198.6 hPa Calm     97 % 0.0 in /  0 mm
04:45 -0.4 °F /  -18 °C -0.8 °F /  -18.2 °C 1010.0 in /  34198.6 hPa Calm     97 % 0.0 in /  0 mm
04:51 -0.6 °F /  -18.1 °C -1.0 °F /  -18.3 °C 1010.0 in /  34198.6 hPa Calm   1.6 mph /  2.6 km/h 97 % 0.0 in /  0 mm
04:57 -0.8 °F /  -18.2 °C -1.2 °F /  -18.4 °C 1010.0 in /  34198.6 hPa Calm     97 % 0.0 in /  0 mm
05:03 -1.1 °F /  -18.4 °C -1.7 °F /  -18.7 °C 1010.0 in /  34198.6 hPa Calm     96 % 0.0 in /  0 mm
05:09 -1.3 °F /  -18.5 °C -1.9 °F /  -18.8 °C 1010.4 in /  34212.1 hPa Calm     96 % 0.0 in /  0 mm
05:15 -1.6 °F /  -18.7 °C -2.2 °F /  -19 °C 1010.4 in /  34212.1 hPa Calm     96 % 0.0 in /  0 mm
05:21 -1.5 °F /  -18.6 °C -1.9 °F /  -18.8 °C 1010.4 in /  34212.1 hPa Calm     97 % 0.0 in /  0 mm
05:27 -1.7 °F /  -18.7 °C -2.3 °F /  -19.1 °C 1010.4 in /  34212.1 hPa Calm     96 % 0.0 in /  0 mm
05:33 -1.8 °F /  -18.8 °C -2.4 °F /  -19.1 °C 1010.4 in /  34212.1 hPa Calm     96 % 0.0 in /  0 mm
05:39 -1.9 °F /  -18.8 °C -2.5 °F /  -19.2 °C 1010.4 in /  34212.1 hPa Calm   1.6 mph /  2.6 km/h 96 % 0.0 in /  0 mm
05:45 -2.1 °F /  -18.9 °C -2.7 °F /  -19.3 °C 1010.4 in /  34212.1 hPa Calm   1.6 mph /  2.6 km/h 96 % 0.0 in /  0 mm
05:51 -2.1 °F /  -18.9 °C -2.5 °F /  -19.2 °C 1010.4 in /  34212.1 hPa Calm   1.6 mph /  2.6 km/h 97 % 0.0 in /  0 mm
05:57 -2.2 °F /  -19 °C -2.8 °F /  -19.3 °C 1010.4 in /  34212.1 hPa Calm     96 % 0.0 in /  0 mm
06:03 -2.3 °F /  -19.1 °C -2.9 °F /  -19.4 °C 1010.4 in /  34212.1 hPa Calm   1.6 mph /  2.6 km/h 96 % 0.0 in /  0 mm
06:10 -2.4 °F /  -19.1 °C -3.0 °F /  -19.4 °C 1010.4 in /  34212.1 hPa Calm   1.6 mph /  2.6 km/h 96 % 0.0 in /  0 mm
06:16 -2.6 °F /  -19.2 °C -3.1 °F /  -19.5 °C 1010.4 in /  34212.1 hPa Calm   1.6 mph /  2.6 km/h 96 % 0.0 in /  0 mm
06:22 -2.6 °F /  -19.2 °C -3.0 °F /  -19.4 °C 1010.4 in /  34212.1 hPa Calm   1.6 mph /  2.6 km/h 97 % 0.0 in /  0 mm
06:28 -2.7 °F /  -19.3 °C -3.1 °F /  -19.5 °C 1010.4 in /  34212.1 hPa SSE 1.4 mph /  2.3 km/h 1.6 mph /  2.6 km/h 97 % 0.0 in /  0 mm
06:34 -2.6 °F /  -19.2 °C -3.0 °F /  -19.4 °C 1010.4 in /  34212.1 hPa SSE 1.4 mph /  2.3 km/h 1.6 mph /  2.6 km/h 97 % 0.0 in /  0 mm
06:40 -2.6 °F /  -19.2 °C -3.0 °F /  -19.4 °C 1010.4 in /  34212.1 hPa Calm   1.6 mph /  2.6 km/h 97 % 0.0 in /  0 mm
06:46 -2.6 °F /  -19.2 °C -3.0 °F /  -19.4 °C 1010.4 in /  34212.1 hPa Calm   1.6 mph /  2.6 km/h 97 % 0.0 in /  0 mm
06:52 -2.5 °F /  -19.2 °C -2.9 °F /  -19.4 °C 1010.4 in /  34212.1 hPa Calm   1.6 mph /  2.6 km/h 97 % 0.0 in /  0 mm
06:58 -2.6 °F /  -19.2 °C -3.0 °F /  -19.4 °C 1010.7 in /  34222.3 hPa Calm   1.6 mph /  2.6 km/h 97 % 0.0 in /  0 mm
07:04 -2.6 °F /  -19.2 °C -3.0 °F /  -19.4 °C 1010.7 in /  34222.3 hPa ESE 1.4 mph /  2.3 km/h 1.6 mph /  2.6 km/h 97 % 0.0 in /  0 mm
07:10 -2.6 °F /  -19.2 °C -3.0 °F /  -19.4 °C 1010.7 in /  34222.3 hPa Calm   1.6 mph /  2.6 km/h 97 % 0.0 in /  0 mm
07:16 -2.5 °F /  -19.2 °C -2.9 °F /  -19.4 °C 1010.7 in /  34222.3 hPa Calm   1.6 mph /  2.6 km/h 97 % 0.0 in /  0 mm
07:22 -2.5 °F /  -19.2 °C -2.9 °F /  -19.4 °C 1010.7 in /  34222.3 hPa Calm     97 % 0.0 in /  0 mm
07:28 -2.6 °F /  -19.2 °C -3.0 °F /  -19.4 °C 1010.7 in /  34222.3 hPa Calm   1.6 mph /  2.6 km/h 97 % 0.0 in /  0 mm
07:34 -2.5 °F /  -19.2 °C -2.9 °F /  -19.4 °C 1010.7 in /  34222.3 hPa Calm   1.6 mph /  2.6 km/h 97 % 0.0 in /  0 mm
07:40 -2.5 °F /  -19.2 °C -2.9 °F /  -19.4 °C 1010.7 in /  34222.3 hPa Calm     97 % 0.0 in /  0 mm
07:46 -2.5 °F /  -19.2 °C -2.9 °F /  -19.4 °C 1010.7 in /  34222.3 hPa Calm     97 % 0.0 in /  0 mm
07:52 -2.6 °F /  -19.2 °C -3.0 °F /  -19.4 °C 1010.7 in /  34222.3 hPa Calm     97 % 0.0 in /  0 mm
07:58 -2.6 °F /  -19.2 °C -3.0 °F /  -19.4 °C 1010.7 in /  34222.3 hPa Calm   1.6 mph /  2.6 km/h 97 % 0.0 in /  0 mm
08:04 -2.6 °F /  -19.2 °C -3.0 °F /  -19.4 °C 1011.1 in /  34235.8 hPa Calm   3.2 mph /  5.1 km/h 97 % 0.0 in /  0 mm
08:10 -2.6 °F /  -19.2 °C -3.0 °F /  -19.4 °C 1010.7 in /  34222.3 hPa SSE 1.4 mph /  2.3 km/h 1.6 mph /  2.6 km/h 97 % 0.0 in /  0 mm
08:16 -2.6 °F /  -19.2 °C -3.0 °F /  -19.4 °C 1010.7 in /  34222.3 hPa SSE 1.4 mph /  2.3 km/h 1.6 mph /  2.6 km/h 97 % 0.0 in /  0 mm
08:22 -2.6 °F /  -19.2 °C -3.0 °F /  -19.4 °C 1010.7 in /  34222.3 hPa Calm   1.6 mph /  2.6 km/h 97 % 0.0 in /  0 mm
08:28 -2.5 °F /  -19.2 °C -2.9 °F /  -19.4 °C 1010.7 in /  34222.3 hPa Calm   1.6 mph /  2.6 km/h 97 % 0.0 in /  0 mm
08:34 -2.5 °F /  -19.2 °C -2.9 °F /  -19.4 °C 1010.7 in /  34222.3 hPa SSW 1.4 mph /  2.3 km/h 1.6 mph /  2.6 km/h 97 % 0.0 in /  0 mm
08:40 -2.5 °F /  -19.2 °C -2.9 °F /  -19.4 °C 1011.1 in /  34235.8 hPa Calm     97 % 0.0 in /  0 mm
08:46 -2.5 °F /  -19.2 °C -2.9 °F /  -19.4 °C 1011.1 in /  34235.8 hPa Calm   1.6 mph /  2.6 km/h 97 % 0.0 in /  0 mm
08:52 -2.4 °F /  -19.1 °C -2.8 °F /  -19.3 °C 1011.1 in /  34235.8 hPa Calm     97 % 0.0 in /  0 mm
08:58 -2.3 °F /  -19.1 °C -2.7 °F /  -19.3 °C 1011.1 in /  34235.8 hPa Calm     97 % 0.0 in /  0 mm
09:04 -2.3 °F /  -19.1 °C -2.7 °F /  -19.3 °C 1011.4 in /  34246 hPa Calm     97 % 0.0 in /  0 mm
09:10 -2.2 °F /  -19 °C -2.6 °F /  -19.2 °C 1011.4 in /  34246 hPa Calm     97 % 0.0 in /  0 mm
09:16 -2.2 °F /  -19 °C -2.6 °F /  -19.2 °C 1011.4 in /  34246 hPa SSE 1.4 mph /  2.3 km/h 1.6 mph /  2.6 km/h 97 % 0.0 in /  0 mm
09:22 -2.2 °F /  -19 °C -2.6 °F /  -19.2 °C 1011.4 in /  34246 hPa Calm     97 % 0.0 in /  0 mm
09:28 -2.1 °F /  -18.9 °C -2.5 °F /  -19.2 °C 1011.4 in /  34246 hPa Calm   1.6 mph /  2.6 km/h 97 % 0.0 in /  0 mm
09:34 -2.0 °F /  -18.9 °C -2.4 °F /  -19.1 °C 1011.4 in /  34246 hPa Calm   1.6 mph /  2.6 km/h 97 % 0.0 in /  0 mm
09:40 -1.8 °F /  -18.8 °C -2.2 °F /  -19 °C 1011.4 in /  34246 hPa Calm     97 % 0.0 in /  0 mm
09:46 -1.8 °F /  -18.8 °C -2.2 °F /  -19 °C 1011.4 in /  34246 hPa Calm   1.6 mph /  2.6 km/h 97 % 0.0 in /  0 mm
09:52 -1.6 °F /  -18.7 °C -2.0 °F /  -18.9 °C 1011.7 in /  34256.2 hPa Calm     97 % 0.0 in /  0 mm
09:58 -1.4 °F /  -18.6 °C -1.8 °F /  -18.8 °C 1011.7 in /  34256.2 hPa Calm     97 % 0.0 in /  0 mm
10:04 -1.3 °F /  -18.5 °C -1.7 °F /  -18.7 °C 1011.7 in /  34256.2 hPa Calm   1.6 mph /  2.6 km/h 97 % 0.0 in /  0 mm
10:10 -1.3 °F /  -18.5 °C -1.7 °F /  -18.7 °C 1011.7 in /  34256.2 hPa Calm   1.6 mph /  2.6 km/h 97 % 0.0 in /  0 mm
10:17 -1.2 °F /  -18.4 °C -1.6 °F /  -18.7 °C 1011.7 in /  34256.2 hPa Calm   1.6 mph /  2.6 km/h 97 % 0.0 in /  0 mm
10:23 -1.1 °F /  -18.4 °C -1.5 °F /  -18.6 °C 1011.7 in /  34256.2 hPa Calm   1.6 mph /  2.6 km/h 97 % 0.0 in /  0 mm
10:29 -0.9 °F /  -18.3 °C -1.3 °F /  -18.5 °C 1011.7 in /  34256.2 hPa South 1.4 mph /  2.3 km/h 1.6 mph /  2.6 km/h 97 % 0.0 in /  0 mm
10:35 -0.8 °F /  -18.2 °C -1.2 °F /  -18.4 °C 1011.7 in /  34256.2 hPa Calm   1.6 mph /  2.6 km/h 97 % 0.0 in /  0 mm
10:41 -0.7 °F /  -18.2 °C -1.1 °F /  -18.4 °C 1011.7 in /  34256.2 hPa Calm     97 % 0.0 in /  0 mm
10:47 -0.6 °F /  -18.1 °C -1.0 °F /  -18.3 °C 1011.7 in /  34256.2 hPa Calm   3.2 mph /  5.1 km/h 97 % 0.0 in /  0 mm
10:53 -0.4 °F /  -18 °C -0.8 °F /  -18.2 °C 1011.7 in /  34256.2 hPa Calm   3.2 mph /  5.1 km/h 97 % 0.0 in /  0 mm
10:59 -0.4 °F /  -18 °C -0.8 °F /  -18.2 °C 1011.7 in /  34256.2 hPa Calm   1.6 mph /  2.6 km/h 97 % 0.0 in /  0 mm
11:05 -0.3 °F /  -17.9 °C -0.7 °F /  -18.2 °C 1011.7 in /  34256.2 hPa SSW 1.4 mph /  2.3 km/h 3.2 mph /  5.1 km/h 97 % 0.0 in /  0 mm
11:11 -0.3 °F /  -17.9 °C -0.7 °F /  -18.2 °C 1011.7 in /  34256.2 hPa SSE 3.2 mph /  5.1 km/h 3.2 mph /  5.1 km/h 97 % 0.0 in /  0 mm
11:17 -0.2 °F /  -17.9 °C -0.6 °F /  -18.1 °C 1011.7 in /  34256.2 hPa South 1.4 mph /  2.3 km/h 1.6 mph /  2.6 km/h 97 % 0.0 in /  0 mm
11:23 0.1 °F /  -17.7 °C -0.3 °F /  -17.9 °C 1011.7 in /  34256.2 hPa Calm   1.6 mph /  2.6 km/h 97 % 0.0 in /  0 mm
11:29 0.3 °F /  -17.6 °C -0.1 °F /  -17.8 °C 1011.7 in /  34256.2 hPa SSW 3.2 mph /  5.1 km/h 3.2 mph /  5.1 km/h 97 % 0.0 in /  0 mm
11:35 0.3 °F /  -17.6 °C -0.1 °F /  -17.8 °C 1011.7 in /  34256.2 hPa Calm   3.2 mph /  5.1 km/h 97 % 0.0 in /  0 mm
11:41 0.4 °F /  -17.6 °C 0.0 °F /  -17.8 °C 1011.7 in /  34256.2 hPa SSE 1.4 mph /  2.3 km/h 4.8 mph /  7.7 km/h 97 % 0.0 in /  0 mm
11:47 0.4 °F /  -17.6 °C 0.0 °F /  -17.8 °C 1011.7 in /  34256.2 hPa South 4.7 mph /  7.6 km/h 6.4 mph /  10.3 km/h 97 % 0.0 in /  0 mm
11:53 0.5 °F /  -17.5 °C 0.1 °F /  -17.7 °C 1011.7 in /  34256.2 hPa SSW 6.4 mph /  10.3 km/h 6.4 mph /  10.3 km/h 97 % 0.0 in /  0 mm
11:59 0.7 °F /  -17.4 °C 0.3 °F /  -17.6 °C 1011.7 in /  34256.2 hPa SSE 3.2 mph /  5.1 km/h 3.2 mph /  5.1 km/h 97 % 0.0 in /  0 mm
12:05 0.9 °F /  -17.3 °C 0.5 °F /  -17.5 °C 1011.7 in /  34256.2 hPa SSW 3.2 mph /  5.1 km/h 3.2 mph /  5.1 km/h 97 % 0.0 in /  0 mm
12:11 1.1 °F /  -17.2 °C 0.8 °F /  -17.3 °C 1011.7 in /  34256.2 hPa SSW 6.4 mph /  10.3 km/h 6.4 mph /  10.3 km/h 98 % 0.0 in /  0 mm
12:17 1.2 °F /  -17.1 °C 0.8 °F /  -17.3 °C 1011.7 in /  34256.2 hPa SW 4.7 mph /  7.6 km/h 6.4 mph /  10.3 km/h 97 % 0.0 in /  0 mm
12:23 1.3 °F /  -17.1 °C 0.9 °F /  -17.3 °C 1011.7 in /  34256.2 hPa Calm   3.2 mph /  5.1 km/h 97 % 0.0 in /  0 mm
12:29 1.6 °F /  -16.9 °C 1.2 °F /  -17.1 °C 1011.7 in /  34256.2 hPa SW 3.2 mph /  5.1 km/h 3.2 mph /  5.1 km/h 97 % 0.0 in /  0 mm
12:35 1.9 °F /  -16.7 °C 1.6 °F /  -16.9 °C 1011.7 in /  34256.2 hPa WSW 3.2 mph /  5.1 km/h 3.2 mph /  5.1 km/h 98 % 0.0 in /  0 mm
12:41 2.2 °F /  -16.6 °C 1.9 °F /  -16.7 °C 1011.7 in /  34256.2 hPa SW 3.2 mph /  5.1 km/h 3.2 mph /  5.1 km/h 98 % 0.3 in /  7.62 mm
12:47 2.7 °F /  -16.3 °C 2.4 °F /  -16.4 °C 1011.4 in /  34246 hPa SW 1.4 mph /  2.3 km/h 3.2 mph /  5.1 km/h 98 % 0.3 in /  7.62 mm
12:53 3.0 °F /  -16.1 °C 2.7 °F /  -16.3 °C 1011.4 in /  34246 hPa SSW 1.4 mph /  2.3 km/h 8.0 mph /  12.9 km/h 98 % 0.3 in /  7.62 mm
12:59 3.3 °F /  -15.9 °C 2.9 °F /  -16.2 °C 1011.1 in /  34235.8 hPa WSW 3.2 mph /  5.1 km/h 6.4 mph /  10.3 km/h 97 % 0.3 in /  7.62 mm
13:05 3.6 °F /  -15.8 °C 3.0 °F /  -16.1 °C 1011.1 in /  34235.8 hPa Calm   6.4 mph /  10.3 km/h 96 % 0.3 in /  7.62 mm
13:11 3.7 °F /  -15.7 °C 2.7 °F /  -16.3 °C 1011.1 in /  34235.8 hPa WSW 6.4 mph /  10.3 km/h 9.7 mph /  15.6 km/h 93 % 0.3 in /  7.62 mm
13:17 4.0 °F /  -15.6 °C 2.8 °F /  -16.2 °C 1011.1 in /  34235.8 hPa WSW 6.4 mph /  10.3 km/h 6.4 mph /  10.3 km/h 92 % 0.3 in /  7.62 mm
13:23 3.9 °F /  -15.6 °C 1.9 °F /  -16.7 °C 1011.1 in /  34235.8 hPa SW 1.4 mph /  2.3 km/h 12.9 mph /  20.8 km/h 87 % 0.3 in /  7.62 mm
13:29 4.3 °F /  -15.4 °C 2.3 °F /  -16.5 °C 1011.1 in /  34235.8 hPa SE 1.4 mph /  2.3 km/h 8.0 mph /  12.9 km/h 87 % 0.3 in /  7.62 mm
13:35 4.5 °F /  -15.3 °C 2.4 °F /  -16.4 °C 1011.1 in /  34235.8 hPa SW 3.2 mph /  5.1 km/h 6.4 mph /  10.3 km/h 86 % 0.3 in /  7.62 mm
13:41 4.9 °F /  -15.1 °C 2.9 °F /  -16.2 °C 1011.1 in /  34235.8 hPa South 4.7 mph /  7.6 km/h 9.7 mph /  15.6 km/h 87 % 0.0 in /  0 mm
13:47 4.9 °F /  -15.1 °C 3.1 °F /  -16.1 °C 1010.7 in /  34222.3 hPa SW 7.9 mph /  12.7 km/h 11.3 mph /  18.2 km/h 88 % 0.0 in /  0 mm
13:53 4.8 °F /  -15.1 °C 2.7 °F /  -16.3 °C 1010.7 in /  34222.3 hPa WSW 7.9 mph /  12.7 km/h 11.3 mph /  18.2 km/h 86 % 0.0 in /  0 mm
13:59 5.1 °F /  -14.9 °C 1.8 °F /  -16.8 °C 1010.7 in /  34222.3 hPa NW 3.2 mph /  5.1 km/h 9.7 mph /  15.6 km/h 79 % 0.0 in /  0 mm
14:05 5.3 °F /  -14.8 °C 2.0 °F /  -16.7 °C 1010.7 in /  34222.3 hPa West 11.1 mph /  17.9 km/h 11.3 mph /  18.2 km/h 79 % 0.0 in /  0 mm
14:11 5.2 °F /  -14.9 °C 2.7 °F /  -16.3 °C 1010.7 in /  34222.3 hPa WSW 7.9 mph /  12.7 km/h 12.9 mph /  20.8 km/h 84 % 0.0 in /  0 mm
14:17 5.1 °F /  -14.9 °C 2.3 °F /  -16.5 °C 1010.7 in /  34222.3 hPa WNW 7.9 mph /  12.7 km/h 16.1 mph /  25.9 km/h 82 % 0.0 in /  0 mm
14:23 5.3 °F /  -14.8 °C 1.0 °F /  -17.2 °C 1010.7 in /  34222.3 hPa NW 7.9 mph /  12.7 km/h 16.1 mph /  25.9 km/h 74 % 0.0 in /  0 mm
14:29 5.3 °F /  -14.8 °C 1.2 °F /  -17.1 °C 1010.7 in /  34222.3 hPa WNW 9.7 mph /  15.6 km/h 17.7 mph /  28.5 km/h 75 % 0.0 in /  0 mm
14:35 5.3 °F /  -14.8 °C 1.2 °F /  -17.1 °C 1010.7 in /  34222.3 hPa WNW 9.7 mph /  15.6 km/h 19.3 mph /  31.1 km/h 75 % 0.0 in /  0 mm
14:41 5.3 °F /  -14.8 °C 1.2 °F /  -17.1 °C 1010.7 in /  34222.3 hPa West 7.9 mph /  12.7 km/h 9.7 mph /  15.6 km/h 75 % 0.0 in /  0 mm
14:47 5.2 °F /  -14.9 °C 0.9 °F /  -17.3 °C 1010.7 in /  34222.3 hPa Calm   11.3 mph /  18.2 km/h 74 % 0.0 in /  0 mm
14:53 5.2 °F /  -14.9 °C 1.1 °F /  -17.2 °C 1010.7 in /  34222.3 hPa West 3.2 mph /  5.1 km/h 8.0 mph /  12.9 km/h 75 % 0.0 in /  0 mm
14:59 5.2 °F /  -14.9 °C 1.3 °F /  -17.1 °C 1010.7 in /  34222.3 hPa West 3.2 mph /  5.1 km/h 8.0 mph /  12.9 km/h 76 % 0.0 in /  0 mm
15:05 5.2 °F /  -14.9 °C 1.3 °F /  -17.1 °C 1010.7 in /  34222.3 hPa WNW 4.7 mph /  7.6 km/h 12.9 mph /  20.8 km/h 76 % 0.0 in /  0 mm
15:12 5.2 °F /  -14.9 °C 0.6 °F /  -17.4 °C 1010.7 in /  34222.3 hPa WNW 7.9 mph /  12.7 km/h 11.3 mph /  18.2 km/h 72 % 0.0 in /  0 mm
15:18 5.1 °F /  -14.9 °C 0.5 °F /  -17.5 °C 1010.7 in /  34222.3 hPa WNW 4.7 mph /  7.6 km/h 11.3 mph /  18.2 km/h 72 % 0.0 in /  0 mm
15:23 5.1 °F /  -14.9 °C 0.5 °F /  -17.5 °C 1010.7 in /  34222.3 hPa West 4.7 mph /  7.6 km/h 9.7 mph /  15.6 km/h 72 % 0.0 in /  0 mm
15:30 4.9 °F /  -15.1 °C 1.7 °F /  -16.8 °C 1010.7 in /  34222.3 hPa West 9.7 mph /  15.6 km/h 12.9 mph /  20.8 km/h 80 % 0.0 in /  0 mm
15:36 4.5 °F /  -15.3 °C 2.5 °F /  -16.4 °C 1010.7 in /  34222.3 hPa WSW 11.1 mph /  17.9 km/h 14.5 mph /  23.3 km/h 87 % 0.0 in /  0 mm
15:42 4.3 °F /  -15.4 °C 2.5 °F /  -16.4 °C 1011.1 in /  34235.8 hPa WSW 4.7 mph /  7.6 km/h 11.3 mph /  18.2 km/h 88 % 0.0 in /  0 mm
15:48 4.3 °F /  -15.4 °C 2.5 °F /  -16.4 °C 1010.7 in /  34222.3 hPa West 6.4 mph /  10.3 km/h 11.3 mph /  18.2 km/h 88 % 0.0 in /  0 mm
15:54 4.3 °F /  -15.4 °C 2.5 °F /  -16.4 °C 1010.7 in /  34222.3 hPa West 4.7 mph /  7.6 km/h 11.3 mph /  18.2 km/h 88 % 0.0 in /  0 mm
16:00 4.3 °F /  -15.4 °C 2.5 °F /  -16.4 °C 1011.1 in /  34235.8 hPa SW 11.1 mph /  17.9 km/h 12.9 mph /  20.8 km/h 88 % 0.0 in /  0 mm
16:06 4.2 °F /  -15.4 °C 2.5 °F /  -16.4 °C 1011.1 in /  34235.8 hPa West 3.2 mph /  5.1 km/h 8.0 mph /  12.9 km/h 89 % 0.0 in /  0 mm
16:12 4.1 °F /  -15.5 °C 2.5 °F /  -16.4 °C 1011.1 in /  34235.8 hPa West 6.4 mph /  10.3 km/h 12.9 mph /  20.8 km/h 89 % 0.0 in /  0 mm
16:18 4.1 °F /  -15.5 °C 2.5 °F /  -16.4 °C 1011.1 in /  34235.8 hPa WNW 14.3 mph /  23 km/h 14.5 mph /  23.3 km/h 89 % 0.0 in /  0 mm
16:24 4.1 °F /  -15.5 °C 2.6 °F /  -16.3 °C 1011.1 in /  34235.8 hPa WSW 3.2 mph /  5.1 km/h 9.7 mph /  15.6 km/h 90 % 0.0 in /  0 mm
16:30 4.0 °F /  -15.6 °C 2.5 °F /  -16.4 °C 1011.1 in /  34235.8 hPa WSW 7.9 mph /  12.7 km/h 9.7 mph /  15.6 km/h 90 % 0.0 in /  0 mm
16:36 4.1 °F /  -15.5 °C 2.6 °F /  -16.3 °C 1011.1 in /  34235.8 hPa WSW 6.4 mph /  10.3 km/h 12.9 mph /  20.8 km/h 90 % 0.0 in /  0 mm
16:42 4.1 °F /  -15.5 °C 2.6 °F /  -16.3 °C 1011.1 in /  34235.8 hPa WSW 4.7 mph /  7.6 km/h 9.7 mph /  15.6 km/h 90 % 0.0 in /  0 mm
16:48 4.2 °F /  -15.4 °C 2.7 °F /  -16.3 °C 1011.1 in /  34235.8 hPa WSW 7.9 mph /  12.7 km/h 12.9 mph /  20.8 km/h 90 % 0.0 in /  0 mm
16:54 4.2 °F /  -15.4 °C 2.5 °F /  -16.4 °C 1010.7 in /  34222.3 hPa WSW 11.1 mph /  17.9 km/h 12.9 mph /  20.8 km/h 89 % 0.0 in /  0 mm
17:00 4.2 °F /  -15.4 °C 2.5 °F /  -16.4 °C 1010.7 in /  34222.3 hPa SW 7.9 mph /  12.7 km/h 12.9 mph /  20.8 km/h 89 % 0.0 in /  0 mm
17:06 4.2 °F /  -15.4 °C 2.7 °F /  -16.3 °C 1010.7 in /  34222.3 hPa WSW 4.7 mph /  7.6 km/h 11.3 mph /  18.2 km/h 90 % 0.0 in /  0 mm
17:12 4.2 °F /  -15.4 °C 2.7 °F /  -16.3 °C 1010.7 in /  34222.3 hPa West 1.4 mph /  2.3 km/h 6.4 mph /  10.3 km/h 90 % 0.0 in /  0 mm
17:18 4.2 °F /  -15.4 °C 2.7 °F /  -16.3 °C 1010.7 in /  34222.3 hPa West 3.2 mph /  5.1 km/h 11.3 mph /  18.2 km/h 90 % 0.0 in /  0 mm
17:24 4.2 °F /  -15.4 °C 2.7 °F /  -16.3 °C 1010.7 in /  34222.3 hPa West 11.1 mph /  17.9 km/h 11.3 mph /  18.2 km/h 90 % 0.0 in /  0 mm
17:30 4.2 °F /  -15.4 °C 2.7 °F /  -16.3 °C 1010.7 in /  34222.3 hPa West 6.4 mph /  10.3 km/h 12.9 mph /  20.8 km/h 90 % 0.0 in /  0 mm
17:36 4.2 °F /  -15.4 °C 2.7 °F /  -16.3 °C 1010.7 in /  34222.3 hPa WSW 6.4 mph /  10.3 km/h 12.9 mph /  20.8 km/h 90 % 0.0 in /  0 mm
17:42 4.2 °F /  -15.4 °C 2.7 °F /  -16.3 °C 1010.7 in /  34222.3 hPa West 3.2 mph /  5.1 km/h 9.7 mph /  15.6 km/h 90 % 0.0 in /  0 mm
17:48 4.2 °F /  -15.4 °C 2.7 °F /  -16.3 °C 1010.7 in /  34222.3 hPa WSW 7.9 mph /  12.7 km/h 9.7 mph /  15.6 km/h 90 % 0.0 in /  0 mm
17:54 4.1 °F /  -15.5 °C 2.8 °F /  -16.2 °C 1010.7 in /  34222.3 hPa West 3.2 mph /  5.1 km/h 11.3 mph /  18.2 km/h 91 % 0.0 in /  0 mm
18:00 4.1 °F /  -15.5 °C 2.8 °F /  -16.2 °C 1010.7 in /  34222.3 hPa SW 3.2 mph /  5.1 km/h 8.0 mph /  12.9 km/h 91 % 0.0 in /  0 mm
18:06 4.1 °F /  -15.5 °C 2.6 °F /  -16.3 °C 1011.1 in /  34235.8 hPa WSW 3.2 mph /  5.1 km/h 9.7 mph /  15.6 km/h 90 % 0.0 in /  0 mm
18:12 4.0 °F /  -15.6 °C 2.5 °F /  -16.4 °C 1011.1 in /  34235.8 hPa WSW 3.2 mph /  5.1 km/h 3.2 mph /  5.1 km/h 90 % 0.0 in /  0 mm
18:18 4.0 °F /  -15.6 °C 2.5 °F /  -16.4 °C 1011.1 in /  34235.8 hPa WSW 3.2 mph /  5.1 km/h 8.0 mph /  12.9 km/h 90 % 0.0 in /  0 mm
18:24 3.9 °F /  -15.6 °C 2.3 °F /  -16.5 °C 1011.1 in /  34235.8 hPa West 3.2 mph /  5.1 km/h 6.4 mph /  10.3 km/h 89 % 0.0 in /  0 mm
18:30 3.9 °F /  -15.6 °C 2.3 °F /  -16.5 °C 1011.1 in /  34235.8 hPa West 4.7 mph /  7.6 km/h 4.8 mph /  7.7 km/h 89 % 0.0 in /  0 mm
18:36 3.9 °F /  -15.6 °C 2.3 °F /  -16.5 °C 1011.1 in /  34235.8 hPa West 3.2 mph /  5.1 km/h 6.4 mph /  10.3 km/h 89 % 0.0 in /  0 mm
18:42 3.9 °F /  -15.6 °C 2.3 °F /  -16.5 °C 1011.1 in /  34235.8 hPa West 1.4 mph /  2.3 km/h 3.2 mph /  5.1 km/h 89 % 0.0 in /  0 mm
18:48 3.9 °F /  -15.6 °C 2.1 °F /  -16.6 °C 1011.1 in /  34235.8 hPa WSW 1.4 mph /  2.3 km/h 6.4 mph /  10.3 km/h 88 % 0.0 in /  0 mm
18:54 3.9 °F /  -15.6 °C 2.1 °F /  -16.6 °C 1011.4 in /  34246 hPa West 1.4 mph /  2.3 km/h 4.8 mph /  7.7 km/h 88 % 0.0 in /  0 mm
19:00 3.9 °F /  -15.6 °C 2.1 °F /  -16.6 °C 1011.4 in /  34246 hPa West 1.4 mph /  2.3 km/h 6.4 mph /  10.3 km/h 88 % 0.0 in /  0 mm
19:06 3.9 °F /  -15.6 °C 2.1 °F /  -16.6 °C 1011.4 in /  34246 hPa NW 1.4 mph /  2.3 km/h 4.8 mph /  7.7 km/h 88 % 0.0 in /  0 mm
19:12 3.9 °F /  -15.6 °C 2.1 °F /  -16.6 °C 1011.4 in /  34246 hPa WNW 1.4 mph /  2.3 km/h 6.4 mph /  10.3 km/h 88 % 0.0 in /  0 mm
19:18 3.9 °F /  -15.6 °C 1.9 °F /  -16.7 °C 1011.7 in /  34256.2 hPa Calm   3.2 mph /  5.1 km/h 87 % 0.0 in /  0 mm
19:24 3.9 °F /  -15.6 °C 2.1 °F /  -16.6 °C 1011.7 in /  34256.2 hPa Calm     88 % 0.0 in /  0 mm
19:30 3.9 °F /  -15.6 °C 2.1 °F /  -16.6 °C 1011.4 in /  34246 hPa Calm   1.6 mph /  2.6 km/h 88 % 0.0 in /  0 mm
19:36 3.8 °F /  -15.7 °C 2.0 °F /  -16.7 °C 1011.7 in /  34256.2 hPa Calm   1.6 mph /  2.6 km/h 88 % 0.0 in /  0 mm
19:42 3.8 °F /  -15.7 °C 2.0 °F /  -16.7 °C 1011.7 in /  34256.2 hPa West 3.2 mph /  5.1 km/h 3.2 mph /  5.1 km/h 88 % 0.0 in /  0 mm
19:48 3.9 °F /  -15.6 °C 1.9 °F /  -16.7 °C 1011.4 in /  34246 hPa WSW 3.2 mph /  5.1 km/h 4.8 mph /  7.7 km/h 87 % 0.0 in /  0 mm
19:54 3.9 °F /  -15.6 °C 1.9 °F /  -16.7 °C 1011.4 in /  34246 hPa WNW 4.7 mph /  7.6 km/h 6.4 mph /  10.3 km/h 87 % 0.0 in /  0 mm
20:00 3.9 °F /  -15.6 °C 1.9 °F /  -16.7 °C 1011.7 in /  34256.2 hPa WNW 6.4 mph /  10.3 km/h 11.3 mph /  18.2 km/h 87 % 0.0 in /  0 mm
20:06 3.9 °F /  -15.6 °C 1.9 °F /  -16.7 °C 1011.4 in /  34246 hPa WNW 6.4 mph /  10.3 km/h 17.7 mph /  28.5 km/h 87 % 0.0 in /  0 mm
20:12 3.9 °F /  -15.6 °C 1.9 °F /  -16.7 °C 1011.4 in /  34246 hPa West 4.7 mph /  7.6 km/h 12.9 mph /  20.8 km/h 87 % 0.3 in /  7.62 mm
20:18 3.9 °F /  -15.6 °C 1.9 °F /  -16.7 °C 1011.4 in /  34246 hPa NW 3.2 mph /  5.1 km/h 14.5 mph /  23.3 km/h 87 % 0.3 in /  7.62 mm
20:24 3.9 °F /  -15.6 °C 2.1 °F /  -16.6 °C 1011.7 in /  34256.2 hPa NW 6.4 mph /  10.3 km/h 14.5 mph /  23.3 km/h 88 % 0.3 in /  7.62 mm
20:30 3.9 °F /  -15.6 °C 2.1 °F /  -16.6 °C 1011.7 in /  34256.2 hPa NW 6.4 mph /  10.3 km/h 20.9 mph /  33.6 km/h 88 % 0.3 in /  7.62 mm
20:36 3.7 °F /  -15.7 °C 1.9 °F /  -16.7 °C 1011.7 in /  34256.2 hPa NNW 9.7 mph /  15.6 km/h 14.5 mph /  23.3 km/h 88 % 0.3 in /  7.62 mm
20:42 3.7 °F /  -15.7 °C 2.1 °F /  -16.6 °C 1011.7 in /  34256.2 hPa NNW 6.4 mph /  10.3 km/h 17.7 mph /  28.5 km/h 89 % 0.3 in /  7.62 mm
20:48 3.6 °F /  -15.8 °C 2.0 °F /  -16.7 °C 1011.7 in /  34256.2 hPa NNW 7.9 mph /  12.7 km/h 19.3 mph /  31.1 km/h 89 % 0.5 in /  12.7 mm
20:54 3.4 °F /  -15.9 °C 1.9 °F /  -16.7 °C 1011.7 in /  34256.2 hPa NW 4.7 mph /  7.6 km/h 16.1 mph /  25.9 km/h 90 % 0.5 in /  12.7 mm
21:00 3.2 °F /  -16 °C 1.7 °F /  -16.8 °C 1011.7 in /  34256.2 hPa NNW 14.3 mph /  23 km/h 14.5 mph /  23.3 km/h 90 % 0.5 in /  12.7 mm
21:06 3.1 °F /  -16.1 °C 1.8 °F /  -16.8 °C 1011.7 in /  34256.2 hPa NNW 3.2 mph /  5.1 km/h 8.0 mph /  12.9 km/h 91 % 0.5 in /  12.7 mm
21:12 2.9 °F /  -16.2 °C 1.6 °F /  -16.9 °C 1011.7 in /  34256.2 hPa NNW 4.7 mph /  7.6 km/h 8.0 mph /  12.9 km/h 91 % 0.3 in /  7.62 mm
21:18 2.9 °F /  -16.2 °C 1.7 °F /  -16.8 °C 1011.7 in /  34256.2 hPa NNW 6.4 mph /  10.3 km/h 6.4 mph /  10.3 km/h 92 % 0.3 in /  7.62 mm
21:24 2.9 °F /  -16.2 °C 1.7 °F /  -16.8 °C 1011.7 in /  34256.2 hPa WNW 4.7 mph /  7.6 km/h 8.0 mph /  12.9 km/h 92 % 0.3 in /  7.62 mm
21:30 2.9 °F /  -16.2 °C 1.7 °F /  -16.8 °C 1011.7 in /  34256.2 hPa NW 4.7 mph /  7.6 km/h 8.0 mph /  12.9 km/h 92 % 0.3 in /  7.62 mm
21:36 2.9 °F /  -16.2 °C 1.7 °F /  -16.8 °C 1011.7 in /  34256.2 hPa WNW 3.2 mph /  5.1 km/h 9.7 mph /  15.6 km/h 92 % 0.3 in /  7.62 mm
21:42 2.9 °F /  -16.2 °C 1.7 °F /  -16.8 °C 1011.7 in /  34256.2 hPa WNW 4.7 mph /  7.6 km/h 8.0 mph /  12.9 km/h 92 % 0.3 in /  7.62 mm
21:48 2.8 °F /  -16.2 °C 1.6 °F /  -16.9 °C 1012.1 in /  34269.7 hPa West 3.2 mph /  5.1 km/h 11.3 mph /  18.2 km/h 92 % 0.0 in /  0 mm
21:54 2.9 °F /  -16.2 °C 1.7 °F /  -16.8 °C 1012.1 in /  34269.7 hPa NW 6.4 mph /  10.3 km/h 12.9 mph /  20.8 km/h 92 % 0.0 in /  0 mm
22:00 2.9 °F /  -16.2 °C 1.7 °F /  -16.8 °C 1012.1 in /  34269.7 hPa WNW 3.2 mph /  5.1 km/h 9.7 mph /  15.6 km/h 92 % 0.0 in /  0 mm
22:06 2.8 °F /  -16.2 °C 1.6 °F /  -16.9 °C 1012.1 in /  34269.7 hPa WNW 7.9 mph /  12.7 km/h 9.7 mph /  15.6 km/h 92 % 0.0 in /  0 mm
22:12 2.8 °F /  -16.2 °C 1.6 °F /  -16.9 °C 1012.1 in /  34269.7 hPa West 9.7 mph /  15.6 km/h 16.1 mph /  25.9 km/h 92 % 0.0 in /  0 mm
22:18 2.8 °F /  -16.2 °C 1.6 °F /  -16.9 °C 1012.1 in /  34269.7 hPa NNW 9.7 mph /  15.6 km/h 12.9 mph /  20.8 km/h 92 % 0.0 in /  0 mm
22:24 2.9 °F /  -16.2 °C 1.7 °F /  -16.8 °C 1012.1 in /  34269.7 hPa WNW 9.7 mph /  15.6 km/h 16.1 mph /  25.9 km/h 92 % 0.0 in /  0 mm
22:30 2.8 °F /  -16.2 °C 1.6 °F /  -16.9 °C 1012.1 in /  34269.7 hPa NW 6.4 mph /  10.3 km/h 17.7 mph /  28.5 km/h 92 % 0.0 in /  0 mm
22:36 2.8 °F /  -16.2 °C 1.6 °F /  -16.9 °C 1012.1 in /  34269.7 hPa NW 3.2 mph /  5.1 km/h 14.5 mph /  23.3 km/h 92 % 0.0 in /  0 mm
22:42 2.8 °F /  -16.2 °C 1.6 °F /  -16.9 °C 1012.1 in /  34269.7 hPa WNW 9.7 mph /  15.6 km/h 12.9 mph /  20.8 km/h 92 % 0.0 in /  0 mm
22:48 2.7 °F /  -16.3 °C 1.5 °F /  -16.9 °C 1011.7 in /  34256.2 hPa WNW 6.4 mph /  10.3 km/h 14.5 mph /  23.3 km/h 92 % 0.0 in /  0 mm
22:54 2.7 °F /  -16.3 °C 1.5 °F /  -16.9 °C 1011.7 in /  34256.2 hPa WNW 7.9 mph /  12.7 km/h 12.9 mph /  20.8 km/h 92 % 0.0 in /  0 mm
23:00 2.8 °F /  -16.2 °C 1.6 °F /  -16.9 °C 1011.7 in /  34256.2 hPa WNW 6.4 mph /  10.3 km/h 16.1 mph /  25.9 km/h 92 % 0.0 in /  0 mm
23:06 2.9 °F /  -16.2 °C 1.7 °F /  -16.8 °C 1011.7 in /  34256.2 hPa NW 4.7 mph /  7.6 km/h 9.7 mph /  15.6 km/h 92 % 0.0 in /  0 mm
23:12 2.9 °F /  -16.2 °C 1.7 °F /  -16.8 °C 1011.7 in /  34256.2 hPa WNW 7.9 mph /  12.7 km/h 11.3 mph /  18.2 km/h 92 % 0.0 in /  0 mm
23:18 2.9 °F /  -16.2 °C 1.7 °F /  -16.8 °C 1011.7 in /  34256.2 hPa WNW 6.4 mph /  10.3 km/h 9.7 mph /  15.6 km/h 92 % 0.0 in /  0 mm
23:24 2.9 °F /  -16.2 °C 1.7 °F /  -16.8 °C 1011.7 in /  34256.2 hPa West 7.9 mph /  12.7 km/h 11.3 mph /  18.2 km/h 92 % 0.0 in /  0 mm
23:30 3.0 °F /  -16.1 °C 1.8 °F /  -16.8 °C 1011.7 in /  34256.2 hPa West 4.7 mph /  7.6 km/h 8.0 mph /  12.9 km/h 92 % 0.0 in /  0 mm
23:36 2.9 °F /  -16.2 °C 1.7 °F /  -16.8 °C 1011.7 in /  34256.2 hPa WNW 6.4 mph /  10.3 km/h 9.7 mph /  15.6 km/h 92 % 0.0 in /  0 mm
23:42 2.9 °F /  -16.2 °C 1.7 °F /  -16.8 °C 1011.7 in /  34256.2 hPa West 6.4 mph /  10.3 km/h 11.3 mph /  18.2 km/h 92 % 0.0 in /  0 mm
23:48 2.9 °F /  -16.2 °C 1.7 °F /  -16.8 °C 1011.7 in /  34256.2 hPa WSW 6.4 mph /  10.3 km/h 11.3 mph /  18.2 km/h 92 % 0.0 in /  0 mm
23:54 2.8 °F /  -16.2 °C 1.6 °F /  -16.9 °C 1011.7 in /  34256.2 hPa NW 6.4 mph /  10.3 km/h 9.7 mph /  15.6 km/h 92 % 0.0 in /  0 mm
Meteo18
Compliments of Weather Underground - 4 mb

Script developed by  Jim McMurry - jmcmurry@mwt.net Adapted for the template by  Wim van der Kuil - Leuven-Template.eu

You find our weather info also at:

European Weather Network

Weather Underground

Equipment we use:

Weather-station
Davis Vue

Weather-program
Meteobridge

Weather-server
Raspberry PI 2 B+

Provider
1 and 1

Davis Vue

Meteobridge

Raspberry PI 2 B+

1 and 1